TimeEST,TemperatureF,Dew PointF,Humidity,Sea Level PressureIn,VisibilityMPH,Wind Direction,Wind SpeedMPH,Gust SpeedMPH,PrecipitationIn,Events,Conditions,WindDirDegrees,DateUTC
12:55 AM,65.5,65.3,99,30.25,10.0,SSE,5.8,-,N/A,,Clear,160,2013-01-29 05:55:00
1:55 AM,64.2,64.2,100,30.24,10.0,South,4.6,-,N/A,,Clear,170,2013-01-29 06:55:00
2:55 AM,63.5,63.5,100,30.22,10.0,SSE,5.8,-,N/A,,Clear,160,2013-01-29 07:55:00
3:55 AM,59.0,59.0,100,30.22,10.0,SSE,5.8,-,N/A,,Clear,160,2013-01-29 08:55:00
4:55 AM,60.4,60.4,100,30.22,10.0,SE,5.8,-,N/A,,Clear,140,2013-01-29 09:55:00
5:55 AM,61.5,61.5,100,30.22,8.0,SSE,5.8,-,N/A,,Clear,160,2013-01-29 10:55:00
6:55 AM,62.1,62.1,100,30.23,5.0,SSE,8.1,-,N/A,,Scattered Clouds,150,2013-01-29 11:55:00
7:05 AM,62.6,62.6,100,30.23,6.0,SSE,8.1,-,N/A,,Mostly Cloudy,160,2013-01-29 12:05:00
7:23 AM,62.6,62.6,100,30.23,2.5,SSE,6.9,-,N/A,,Mostly Cloudy,160,2013-01-29 12:23:00
7:34 AM,62.6,62.6,100,30.24,3.0,SSE,9.2,-,N/A,,Overcast,160,2013-01-29 12:34:00
7:55 AM,63.1,63.1,100,30.24,4.0,SSE,8.1,-,N/A,,Overcast,160,2013-01-29 12:55:00
8:02 AM,62.6,62.6,100,30.24,2.5,South,9.2,-,N/A,,Overcast,170,2013-01-29 13:02:00
8:06 AM,64.4,64.4,100,30.24,1.8,SSE,8.1,-,N/A,,Overcast,160,2013-01-29 13:06:00
8:12 AM,64.4,64.4,100,30.24,1.5,SSE,8.1,-,N/A,,Overcast,160,2013-01-29 13:12:00
8:34 AM,64.4,64.4,100,30.25,2.0,South,8.1,-,N/A,,Overcast,170,2013-01-29 13:34:00
8:40 AM,64.4,64.4,100,30.25,3.0,South,9.2,-,N/A,,Overcast,180,2013-01-29 13:40:00
8:48 AM,64.4,64.4,100,30.24,5.0,South,10.4,-,N/A,,Overcast,170,2013-01-29 13:48:00
8:55 AM,65.1,65.1,100,30.24,6.0,South,10.4,-,N/A,,Overcast,180,2013-01-29 13:55:00
9:08 AM,66.2,66.2,100,30.25,6.0,South,9.2,-,N/A,,Overcast,180,2013-01-29 14:08:00
9:11 AM,66.2,66.2,100,30.25,6.0,South,10.4,-,N/A,,Overcast,180,2013-01-29 14:11:00
9:17 AM,66.2,66.2,100,30.25,6.0,South,10.4,-,N/A,,Overcast,180,2013-01-29 14:17:00
9:30 AM,66.2,66.2,100,30.25,6.0,South,9.2,-,N/A,,Overcast,170,2013-01-29 14:30:00
9:38 AM,66.2,66.2,100,30.25,6.0,South,6.9,-,N/A,,Overcast,180,2013-01-29 14:38:00
9:55 AM,68.4,68.4,100,30.24,8.0,South,10.4,-,N/A,,Overcast,180,2013-01-29 14:55:00
10:08 AM,69.8,69.8,100,30.24,10.0,South,9.2,-,N/A,,Scattered Clouds,180,2013-01-29 15:08:00
10:55 AM,73.6,69.1,86,30.23,10.0,South,13.8,-,N/A,,Clear,190,2013-01-29 15:55:00
11:55 AM,77.7,68.9,74,30.20,10.0,South,10.4,-,N/A,,Clear,190,2013-01-29 16:55:00
12:55 PM,80.6,67.8,65,30.17,10.0,SW,12.7,-,N/A,,Clear,220,2013-01-29 17:55:00
1:55 PM,82.8,67.3,59,30.14,10.0,SW,10.4,-,N/A,,Clear,230,2013-01-29 18:55:00
2:55 PM,81.0,68.9,67,30.13,10.0,WNW,12.7,-,N/A,,Scattered Clouds,300,2013-01-29 19:55:00
3:55 PM,77.7,68.9,74,30.12,10.0,WNW,13.8,-,N/A,,Partly Cloudy,290,2013-01-29 20:55:00
4:55 PM,73.9,68.4,83,30.12,10.0,WNW,10.4,-,N/A,,Mostly Cloudy,300,2013-01-29 21:55:00
5:55 PM,71.2,67.6,88,30.11,10.0,WNW,8.1,-,N/A,,Mostly Cloudy,290,2013-01-29 22:55:00
6:55 PM,70.3,67.6,91,30.13,10.0,WNW,9.2,-,N/A,,Overcast,290,2013-01-29 23:55:00
7:55 PM,70.0,67.3,91,30.12,10.0,West,6.9,-,N/A,,Overcast,260,2013-01-30 00:55:00
8:55 PM,69.8,68.0,94,30.13,10.0,SW,5.8,-,N/A,,Scattered Clouds,230,2013-01-30 01:55:00
9:55 PM,70.5,68.2,92,30.11,10.0,SW,8.1,-,N/A,,Scattered Clouds,230,2013-01-30 02:55:00
10:55 PM,69.8,68.2,95,30.12,10.0,SSW,5.8,-,N/A,,Mostly Cloudy,200,2013-01-30 03:55:00
11:44 PM,69.8,68.0,94,30.12,10.0,SSW,4.6,-,N/A,,Mostly Cloudy,200,2013-01-30 04:44:00
11:55 PM,69.3,68.2,96,30.12,10.0,SSW,4.6,-,N/A,,Mostly Cloudy,200,2013-01-30 04:55:00